Location: Dodgeville
(42.9600°N, 90.1300°W)
Time: 23:29:32
(UTC-06:00)

Amateur Radio Satellites - All Passes

Search period start: 30 January 2015 22:59
Search period end: 31 January 2015 22:59
Location: Dodgeville, 42.9600°N, 90.1300°W

Satellite Date Start Highest point End Downlink Frequencies (MHz)
Time Altitude Azimuth
ESTCUBE 1 30 Jan 22:59:57 23:04:12 40° 263° (W) 23:08:26 437.505/2401.250
SPROUT 30 Jan 23:00:19 23:04:26 47° 72° (ENE) 23:08:38 437.525
50 SAT 30 Jan 23:01:25 23:04:16 18° 269° (W) 23:07:02 437.505
TIGRISAT 30 Jan 23:02:29 23:06:56 69° 286° (WNW) 23:11:14 435.000
QB50P2 30 Jan 23:07:40 23:12:01 86° 101° (ESE) 23:16:19 145.880/145.840
SWISSCUBE 30 Jan 23:10:19 23:12:11 13° 60° (ENE) 23:14:17 437.505
QB50P1 30 Jan 23:16:24 23:20:44 78° 284° (WNW) 23:25:01 145.935-145.965
BUGSAT 1 30 Jan 23:18:59 23:23:18 87° 103° (ESE) 23:27:35 437.445
VELOX 1 30 Jan 23:22:08 23:23:47 11° 273° (W) 23:25:10 145.980
CUBEBUG 1 30 Jan 23:22:43 23:26:20 25° 266° (W) 23:29:56 437.445
BEESAT 30 Jan 23:24:44 23:27:31 16° 63° (ENE) 23:30:29 436.000
ISS 30 Jan 23:26:55 23:29:33 21° 347° (NNW) 23:32:11 145.825
ITUPSAT 1 30 Jan 23:29:28 23:32:30 17° 63° (ENE) 23:35:41 437.325
TISAT 1 30 Jan 23:31:17 23:35:32 80° 257° (WSW) 23:39:50 437.305
POLYITAN 1 30 Jan 23:32:30 23:36:43 51° 287° (WNW) 23:40:53 437.675
POPSAT HIP 1 30 Jan 23:51:50 23:55:44 33° 290° (WNW) 23:59:33 437.405
DUCHIFAT 1 30 Jan 23:53:26 23:57:18 32° 291° (WNW) 00:01:05 145.980
UNISAT 6 30 Jan 23:57:15 00:00:31 20° 295° (WNW) 00:03:35 437.425
GONETS M04 31 Jan 00:19:00 00:26:53 41° 87° (E) 00:34:53
NANOSAT C BR1 31 Jan 00:29:37 00:32:06 15° 296° (WNW) 00:34:26 145.865
BEESAT 2 31 Jan 00:34:45 00:35:28 10° 109° (ESE) 00:36:24 435.950
Oscar 19 31 Jan 00:37:14 00:41:04 22° 91° (E) 00:45:02 437.125/150
SPROUT 31 Jan 00:38:04 00:40:52 16° 270° (W) 00:43:31 437.525
STARS 31 Jan 00:43:54 00:45:50 13° 62° (ENE) 00:47:58 437.465
SWISSCUBE 31 Jan 00:44:42 00:49:29 83° 259° (W) 00:54:16 437.505
BEESAT 3 31 Jan 00:45:06 00:47:34 16° 112° (ESE) 00:50:14 437.485
QB50P2 31 Jan 00:46:36 00:47:21 10° 299° (WNW) 00:47:51 145.880/145.840
O/OREOS (USA 219) 31 Jan 00:49:19 00:53:26 32° 58° (ENE) 00:57:35 437.305
KKS-1 31 Jan 00:52:35 00:56:05 23° 67° (ENE) 00:59:41 437.445
BUGSAT 1 31 Jan 00:57:38 00:58:12 10° 299° (WNW) 00:58:32 437.445
ITAMSAT 1 31 Jan 00:59:04 01:00:42 12° 86° (E) 01:02:41 435.822/435.867
BEESAT 31 Jan 01:00:13 01:04:57 63° 259° (W) 01:09:41 436.000
ISS 31 Jan 01:04:24 01:06:51 19° 7° (N) 01:09:19 145.825
ITUPSAT 1 31 Jan 01:05:20 01:10:01 57° 260° (W) 01:14:44 437.325
AUBIESAT-1 31 Jan 01:16:00 01:18:07 15° 62° (ENE) 01:20:16 437.475
Gurwin Techsat 1B 31 Jan 02:04:29 02:09:19 35° 96° (E) 02:14:11 435.225
BEESAT 2 31 Jan 02:09:00 02:13:08 78° 304° (NW) 02:17:20 435.950
RS-15 31 Jan 02:14:27 02:16:09 11° 97° (E) 02:19:00 29.354- 29.394
AIST 2 31 Jan 02:14:38 02:18:44 51° 119° (ESE) 02:22:56 435.215
GONETS M04 31 Jan 02:15:19 02:23:41 46° 288° (WNW) 02:31:58
Oscar 19 31 Jan 02:15:47 02:20:45 48° 289° (WNW) 02:25:38 437.125/150
M-CUBED/EXP-1 PRIME 31 Jan 02:17:12 02:21:12 84° 71° (ENE) 02:24:53 437.505
STARS 31 Jan 02:17:22 02:21:48 72° 258° (WSW) 02:26:18 437.465
DANDE 31 Jan 02:20:23 02:25:16 18° 80° (E) 02:30:41 436.750
BEESAT 3 31 Jan 02:21:21 02:25:22 51° 308° (NW) 02:29:27 437.485
KKS-1 31 Jan 02:28:24 02:32:34 36° 263° (W) 02:36:44 437.445
O/OREOS (USA 219) 31 Jan 02:28:51 02:32:47 27° 256° (WSW) 02:36:38 437.305
HORYU 2 31 Jan 02:33:27 02:36:31 19° 91° (E) 02:39:43 437.375
ITAMSAT 1 31 Jan 02:35:45 02:41:03 87° 280° (W) 02:46:17 435.822/435.867
CUSAT 1 31 Jan 02:37:31 02:43:59 27° 86° (E) 02:50:44 437.405
ISS 31 Jan 02:40:43 02:43:55 47° 27° (NNE) 02:47:07 145.825
MOZHAYETS 4 31 Jan 02:46:03 02:48:39 16° 64° (ENE) 02:51:26
AUBIESAT-1 31 Jan 02:49:03 02:52:51 44° 255° (WSW) 02:56:22 437.475
PCSat 31 Jan 03:06:41 03:11:15 29° 110° (ESE) 03:15:58 145.827
AO-7 31 Jan 03:18:31 03:25:36 31° 94° (E) 03:32:50 29.400- 29.500
Gurwin Techsat 1B 31 Jan 03:44:34 03:49:16 32° 293° (WNW) 03:53:53 435.225
BEESAT 2 31 Jan 03:50:11 03:52:07 13° 325° (NW) 03:53:57 435.950
AIST 2 31 Jan 03:54:19 03:57:40 21° 318° (NW) 04:00:59 435.215
DANDE 31 Jan 03:59:18 04:07:39 78° 97° (E) 04:16:16 436.750
HORYU 2 31 Jan 04:09:14 04:13:27 42° 289° (WNW) 04:17:38 437.375
RS-15 31 Jan 04:15:52 04:26:25 60° 115° (ESE) 04:37:09 29.354- 29.394
ITAMSAT 1 31 Jan 04:17:28 04:19:51 13° 301° (WNW) 04:21:58 435.822/435.867
ISS 31 Jan 04:17:30 04:20:15 24° 224° (SW) 04:22:58 145.825
CUSAT 1 31 Jan 04:18:07 04:26:28 74° 282° (WNW) 04:34:47 437.405
MOZHAYETS 4 31 Jan 04:20:57 04:25:29 60° 260° (W) 04:30:02
YUBILEINY 31 Jan 04:25:59 04:30:42 16° 55° (NE) 04:35:54 435.215
JAS-2 31 Jan 04:27:02 04:32:36 50° 100° (E) 04:38:53 435.910
CUBESAT XI-V 31 Jan 04:43:22 04:46:35 20° 66° (ENE) 04:49:58 437.345
PCSat 31 Jan 04:49:23 04:54:32 43° 308° (NW) 04:59:43 145.827
Cubesat XI-IV 31 Jan 04:56:46 04:58:29 12° 86° (E) 05:00:33 437.490
AO-7 31 Jan 05:10:45 05:18:57 62° 294° (WNW) 05:27:03 29.400- 29.500
CUTE-I 31 Jan 05:14:44 05:18:14 18° 90° (E) 05:21:54 437.470
PRISM 31 Jan 05:30:46 05:34:53 85° 76° (ENE) 05:39:01 437.425
STRAND 1 31 Jan 05:36:52 05:41:47 50° 71° (ENE) 05:46:44 437.568
DANDE 31 Jan 05:44:50 05:52:02 28° 297° (WNW) 05:58:59 436.750
CUSAT 1 31 Jan 06:05:17 06:10:59 19° 303° (WNW) 06:16:10 437.405
JAS-2 31 Jan 06:12:50 06:17:34 27° 294° (WNW) 06:22:35 435.910
CUBESAT XI-V 31 Jan 06:19:20 06:23:46 46° 262° (W) 06:28:14 437.345
YUBILEINY 31 Jan 06:20:41 06:29:30 73° 79° (E) 06:38:19 435.215
RS-15 31 Jan 06:28:51 06:39:16 46° 320° (NW) 06:49:48 29.354- 29.394
Cubesat XI-IV 31 Jan 06:34:02 06:39:27 89° 292° (WNW) 06:44:51 437.490
PCSat 31 Jan 06:38:42 06:39:33 10° 331° (NNW) 06:40:13 145.827
CUTE-I 31 Jan 06:53:30 06:58:49 62° 288° (WNW) 07:04:07 437.470
AO-7 31 Jan 07:05:41 07:10:15 16° 314° (NW) 07:14:26 29.400- 29.500
VERMONT LUNAR 31 Jan 07:10:40 07:12:57 17° 153° (SSE) 07:15:17 437.305
STRAND 1 31 Jan 07:17:31 07:21:20 20° 269° (W) 07:25:01 437.568
SEEDS 31 Jan 07:51:05 07:52:28 12° 88° (E) 07:54:04 437.485
GOMX 1 31 Jan 07:57:30 08:01:31 22° 89° (E) 08:05:32 467.674
DOVE 4 31 Jan 08:00:19 08:03:18 16° 87° (E) 08:06:24 437.250
BRITE-PL 31 Jan 08:12:17 08:17:40 43° 96° (E) 08:22:48 437.365/2234.400
COMPASS 1 31 Jan 08:13:23 08:16:07 17° 91° (E) 08:18:59 437.405
Cubesat XI-IV 31 Jan 08:16:10 08:18:53 14° 301° (WNW) 08:21:20 437.490
YUBILEINY 31 Jan 08:18:47 08:25:35 25° 278° (W) 08:32:04 435.215
PHONESAT 2.4 31 Jan 08:21:26 08:24:31 27° 158° (SSE) 08:27:38 2401.200-2431.200
ANTELSAT 31 Jan 08:21:47 08:23:41 13° 62° (ENE) 08:25:47 437.575/2403.000
TIGRISAT 31 Jan 08:27:44 08:30:04 14° 63° (ENE) 08:32:36 435.000
CANX-2 31 Jan 08:33:17 08:37:21 45° 98° (E) 08:41:24 2200.000
HO-68 31 Jan 08:36:59 08:43:56 52° 100° (E) 08:50:54 435.675
AAUSAT CUBESAT 2 31 Jan 08:37:23 08:40:57 28° 95° (E) 08:44:33 437.432
RS-15 31 Jan 08:46:55 08:55:24 24° 353° (N) 09:04:01 29.354- 29.394
VERMONT LUNAR 31 Jan 08:47:15 08:50:36 45° 168° (SSE) 08:53:57 437.305
BEESAT 2 31 Jan 08:51:20 08:53:26 14° 36° (NE) 08:55:37 435.950
POLYITAN 1 31 Jan 08:52:53 08:55:04 14° 63° (ENE) 08:57:27 437.675
CUTE 1.7 + AOD 2 31 Jan 08:57:00 09:01:15 77° 100° (E) 09:05:28 437.475
BEESAT 3 31 Jan 09:02:42 09:05:32 18° 40° (NE) 09:08:25 437.485
UWE-3 31 Jan 09:04:19 09:07:10 17° 89° (E) 09:10:06 435.000/436.395/437.385
Oscar 11 31 Jan 09:06:29 09:10:14 29° 95° (E) 09:14:01 145.826/435.025
CINEMA 3 31 Jan 09:07:14 09:11:44 38° 96° (E) 09:16:03 145.822/145.860
POPSAT HIP 1 31 Jan 09:10:37 09:13:46 21° 66° (ENE) 09:17:02 437.405
DUCHIFAT 1 31 Jan 09:11:55 09:15:05 21° 66° (ENE) 09:18:22 145.980
UNISAT 6 31 Jan 09:19:19 09:23:46 44° 72° (ENE) 09:28:14 437.425
SEEDS 31 Jan 09:24:38 09:28:48 61° 286° (WNW) 09:32:55 437.485
VELOX 1 31 Jan 09:34:02 09:35:54 13° 88° (E) 09:38:00 145.980
GOMX 1 31 Jan 09:34:45 09:40:01 51° 289° (WNW) 09:44:59 467.674
DOVE 4 31 Jan 09:36:30 09:41:41 64° 286° (WNW) 09:46:32 437.250
UKube-1 31 Jan 09:42:53 09:46:59 38° 98° (E) 09:51:05 .
NANOSAT C BR1 31 Jan 09:45:57 09:50:03 47° 72° (ENE) 09:54:13 145.865
COMPASS 1 31 Jan 09:48:10 09:52:05 40° 288° (WNW) 09:55:58 437.405
HUMSAT D 31 Jan 09:48:11 09:51:27 22° 93° (E) 09:54:45 437.325/437.525
SO-50 31 Jan 09:49:27 09:54:00 72° 122° (ESE) 09:58:44 436.795
BRITE-PL 31 Jan 09:51:07 09:55:58 29° 294° (WNW) 10:00:34 437.365/2234.400
DELFI C3 31 Jan 09:54:57 09:59:02 83° 102° (ESE) 10:03:04 145.870
ANTELSAT 31 Jan 09:55:12 09:59:56 81° 258° (WSW) 10:04:39 437.575/2403.000
PHONESAT 2.4 31 Jan 09:59:13 10:02:46 56° 174° (S) 10:06:20 2401.200-2431.200
QB50P2 31 Jan 10:01:25 10:05:41 72° 75° (ENE) 10:10:00 145.880/145.840
TIGRISAT 31 Jan 10:01:37 10:06:20 72° 258° (WSW) 10:11:02 435.000
ZACube-1 31 Jan 10:02:03 10:06:26 58° 100° (E) 10:10:41 437.345
CUBEBUG 2 31 Jan 10:04:18 10:08:54 88° 102° (ESE) 10:13:18 437.445
DX 1 31 Jan 10:06:13 10:10:38 74° 102° (ESE) 10:15:01 434.975-435.025
QB50P1 31 Jan 10:09:55 10:14:12 88° 78° (ENE) 10:18:33 145.935-145.965
BUGSAT 1 31 Jan 10:09:59 10:14:03 67° 75° (ENE) 10:18:14 437.445
CANX-2 31 Jan 10:10:11 10:13:00 17° 294° (WNW) 10:15:41 2200.000
AAUSAT CUBESAT 2 31 Jan 10:13:07 10:16:34 25° 291° (WNW) 10:19:56 437.432
FUNcube-1 31 Jan 10:13:13 10:17:40 76° 103° (ESE) 10:21:56 145.935
VERMONT LUNAR 31 Jan 10:25:05 10:28:31 56° 185° (S) 10:31:57 437.305
HO-68 31 Jan 10:25:10 10:31:27 33° 298° (WNW) 10:37:36 435.675
POLYITAN 1 31 Jan 10:26:19 10:30:35 61° 259° (W) 10:34:54 437.675
BEESAT 2 31 Jan 10:28:08 10:32:20 86° 52° (NE) 10:36:29 435.950
GONETS M04 31 Jan 10:28:14 10:34:16 21° 60° (ENE) 10:40:40
CUTE 1.7 + AOD 2 31 Jan 10:35:28 10:36:40 11° 298° (WNW) 10:37:37 437.475
AIST 2 31 Jan 10:35:46 10:39:55 45° 51° (NE) 10:44:00 435.215
50 SAT 31 Jan 10:38:30 10:42:31 59° 101° (E) 10:46:27 437.505
UWE-3 31 Jan 10:39:45 10:44:04 46° 288° (WNW) 10:48:14 435.000/436.395/437.385
BEESAT 3 31 Jan 10:39:59 10:44:07 63° 240° (WSW) 10:48:10 437.485
AISAT 31 Jan 10:41:27 10:45:59 68° 102° (ESE) 10:50:28 437.250
Oscar 11 31 Jan 10:42:44 10:46:23 26° 291° (WNW) 10:49:55 145.826/435.025
AIST 1 31 Jan 10:43:04 10:47:10 49° 94° (E) 10:51:19
CINEMA 3 31 Jan 10:44:50 10:48:45 24° 294° (WNW) 10:52:25 145.822/145.860
POPSAT HIP 1 31 Jan 10:45:27 10:49:28 38° 263° (W) 10:53:30 437.405
DUCHIFAT 1 31 Jan 10:46:46 10:50:45 37° 263° (W) 10:54:44 145.980
ESTCUBE 1 31 Jan 10:51:41 10:55:55 38° 97° (E) 11:00:10 437.505/2401.250
UNISAT 6 31 Jan 10:57:14 11:00:48 20° 268° (W) 11:04:14 437.425
RS-15 31 Jan 11:02:49 11:12:27 32° 27° (NNE) 11:22:35 29.354- 29.394
VELOX 1 31 Jan 11:08:33 11:13:02 65° 286° (WNW) 11:17:28 145.980
CUBEBUG 1 31 Jan 11:09:53 11:14:17 55° 100° (E) 11:18:40 437.445
TISAT 1 31 Jan 11:16:40 11:19:11 16° 90° (E) 11:21:52 437.305
UKube-1 31 Jan 11:19:37 11:22:56 21° 294° (WNW) 11:26:09 .
HUMSAT D 31 Jan 11:23:32 11:27:21 33° 290° (WNW) 11:31:05 437.325/437.525
NANOSAT C BR1 31 Jan 11:23:32 11:26:15 16° 270° (W) 11:28:49 145.865
SO-50 31 Jan 11:31:42 11:35:07 19° 322° (NW) 11:38:33 436.795
PHONESAT 2.4 31 Jan 11:37:38 11:41:09 47° 191° (SSW) 11:44:39 2401.200-2431.200
ZACube-1 31 Jan 11:39:48 11:42:22 15° 297° (WNW) 11:44:44 437.345
QB50P2 31 Jan 11:41:18 11:42:13 10° 273° (W) 11:42:51 145.880/145.840
CUBEBUG 2 31 Jan 11:43:42 11:44:55 11° 300° (WNW) 11:45:53 437.445
DX 1 31 Jan 11:44:26 11:46:21 12° 298° (WNW) 11:48:06 434.975-435.025
BUGSAT 1 31 Jan 11:49:15 11:50:08 10° 273° (W) 11:50:47 437.445
FUNcube-1 31 Jan 11:51:45 11:53:25 12° 298° (WNW) 11:54:52 145.935
PCSat 31 Jan 11:53:03 11:57:52 32° 48° (NE) 12:02:42 145.827
Oscar 19 31 Jan 11:54:41 11:59:20 35° 68° (ENE) 12:04:03 437.125/150
VERMONT LUNAR 31 Jan 12:03:17 12:06:19 27° 201° (SSW) 12:09:21 437.305
AIST 2 31 Jan 12:15:06 12:18:15 20° 248° (WSW) 12:21:15 435.215
50 SAT 31 Jan 12:15:19 12:17:11 13° 296° (WNW) 12:18:52 437.505
ITAMSAT 1 31 Jan 12:17:01 12:20:47 21° 63° (ENE) 12:24:43 435.822/435.867
AISAT 31 Jan 12:19:43 12:22:07 14° 298° (WNW) 12:24:19 437.250
SPROUT 31 Jan 12:22:01 12:26:25 84° 105° (ESE) 12:30:46 437.525
AIST 1 31 Jan 12:22:46 12:25:15 15° 293° (WNW) 12:27:34
GONETS M04 31 Jan 12:23:46 12:32:31 87° 261° (W) 12:41:13
ESTCUBE 1 31 Jan 12:29:03 12:32:37 23° 294° (WNW) 12:36:05 437.505/2401.250
AO-7 31 Jan 12:32:43 12:35:07 12° 41° (NE) 12:37:58 29.400- 29.500
SWISSCUBE 31 Jan 12:44:53 12:48:41 24° 93° (E) 12:52:36 437.505
CUBEBUG 1 31 Jan 12:47:30 12:50:17 16° 296° (WNW) 12:52:54 437.445
TISAT 1 31 Jan 12:51:11 12:55:21 48° 288° (WNW) 12:59:28 437.305
BEESAT 31 Jan 12:59:56 13:04:08 31° 95° (E) 13:08:23 436.000
DANDE 31 Jan 13:04:51 13:05:42 10° 48° (NE) 13:06:53 436.750
ITUPSAT 1 31 Jan 13:05:15 13:09:35 34° 96° (E) 13:13:58 437.325
RS-15 31 Jan 13:15:31 13:26:55 81° 55° (NE) 13:38:51 29.354- 29.394
PHONESAT 2.4 31 Jan 13:16:39 13:19:17 19° 207° (SSW) 13:21:52 2401.200-2431.200
CUSAT 1 31 Jan 13:19:34 13:22:40 15° 54° (NE) 13:25:38 437.405
Gurwin Techsat 1B 31 Jan 13:26:21 13:31:33 60° 73° (ENE) 13:36:49 435.225
HORYU 2 31 Jan 13:32:59 13:36:17 21° 66° (ENE) 13:39:42 437.375
Oscar 19 31 Jan 13:34:09 13:38:44 30° 265° (W) 13:43:17 437.125/150
PCSat 31 Jan 13:36:18 13:41:26 43° 247° (WSW) 13:46:29 145.827
ITAMSAT 1 31 Jan 13:54:55 13:59:58 53° 260° (W) 14:05:04 435.822/435.867
SPROUT 31 Jan 14:00:52 14:01:56 11° 299° (WNW) 14:02:45 437.525
STARS 31 Jan 14:07:22 14:10:36 20° 92° (E) 14:13:56 437.465
AO-7 31 Jan 14:18:12 14:26:01 47° 63° (ENE) 14:33:56 29.400- 29.500
KKS-1 31 Jan 14:18:32 14:22:45 39° 97° (E) 14:26:58 437.445
SWISSCUBE 31 Jan 14:22:16 14:26:43 38° 290° (WNW) 14:31:07 437.505
GONETS M04 31 Jan 14:22:46 14:28:14 18° 282° (WNW) 14:33:13
BEESAT 31 Jan 14:37:48 14:41:59 30° 292° (WNW) 14:46:05 436.000
JAS-2 31 Jan 14:42:35 14:46:23 21° 64° (ENE) 14:50:16 435.910
ITUPSAT 1 31 Jan 14:43:21 14:47:25 28° 293° (WNW) 14:51:24 437.325
DANDE 31 Jan 14:44:46 14:51:19 64° 76° (ENE) 14:56:05 436.750
CUSAT 1 31 Jan 15:00:59 15:07:04 77° 262° (W) 15:11:29 437.405
O/OREOS (USA 219) 31 Jan 15:02:43 15:06:35 29° 105° (ESE) 15:10:33 437.305
Gurwin Techsat 1B 31 Jan 15:08:21 15:12:02 18° 271° (W) 15:15:31 435.225
HORYU 2 31 Jan 15:08:28 15:12:43 41° 262° (W) 15:17:00 437.375
RS-15 31 Jan 15:28:59 15:38:27 30° 254° (WSW) 15:47:47 29.354- 29.394
M-CUBED/EXP-1 PRIME 31 Jan 15:33:07 15:36:23 51° 106° (ESE) 15:39:46 437.505
STARS 31 Jan 15:43:06 15:47:17 40° 290° (WNW) 15:51:25 437.465
KKS-1 31 Jan 15:55:43 15:59:11 22° 294° (WNW) 16:02:33 437.445
AUBIESAT-1 31 Jan 16:04:10 16:07:30 66° 290° (WNW) 16:10:56 437.475
AO-7 31 Jan 16:11:04 16:18:56 42° 262° (W) 16:26:45 29.400- 29.500
MOZHAYETS 4 31 Jan 16:15:33 16:19:31 30° 95° (E) 16:23:34
Cubesat XI-IV 31 Jan 16:18:41 16:22:44 23° 64° (ENE) 16:26:55 437.490
JAS-2 31 Jan 16:26:00 16:31:17 50° 260° (W) 16:36:21 435.910
DANDE 31 Jan 16:29:52 16:33:41 17° 281° (W) 16:36:45 436.750
CUTE-I 31 Jan 16:37:11 16:41:51 32° 67° (ENE) 16:46:35 437.470
SO-50 31 Jan 16:40:36 16:43:41 17° 35° (NE) 16:46:54 436.795
O/OREOS (USA 219) 31 Jan 16:42:02 16:45:59 29° 303° (WNW) 16:49:57 437.305
M-CUBED/EXP-1 PRIME 31 Jan 17:10:24 17:11:05 10° 300° (WNW) 17:11:37 437.505
PRISM 31 Jan 17:15:10 17:16:14 11° 88° (E) 17:17:35 437.425
YUBILEINY 31 Jan 17:30:55 17:35:20 16° 77° (ENE) 17:40:17 435.215
STRAND 1 31 Jan 17:47:46 17:50:45 16° 89° (E) 17:53:58 437.568
MOZHAYETS 4 31 Jan 17:52:48 17:56:45 28° 291° (WNW) 18:00:37
Cubesat XI-IV 31 Jan 17:57:22 18:02:33 50° 261° (W) 18:07:45 437.490
CUBESAT XI-V 31 Jan 18:15:04 18:19:29 41° 97° (E) 18:23:57 437.345
CUTE-I 31 Jan 18:17:03 18:21:53 34° 264° (W) 18:26:44 437.470
SO-50 31 Jan 18:20:05 18:25:03 82° 56° (NE) 18:29:58 436.795
SEEDS 31 Jan 18:45:33 18:46:25 11° 62° (ENE) 18:47:32 437.485
PRISM 31 Jan 18:48:09 18:52:17 64° 286° (WNW) 18:56:24 437.425
GOMX 1 31 Jan 19:06:05 19:10:18 26° 66° (ENE) 19:14:47 467.674
HO-68 31 Jan 19:06:28 19:13:04 43° 65° (ENE) 19:19:45 435.675
DOVE 4 31 Jan 19:06:29 19:10:03 20° 63° (ENE) 19:13:51 437.250
COMPASS 1 31 Jan 19:06:37 19:08:58 15° 65° (ENE) 19:11:29 437.405
YUBILEINY 31 Jan 19:22:14 19:30:54 81° 95° (E) 19:39:39 435.215
BRITE-PL 31 Jan 19:23:26 19:28:25 50° 71° (ENE) 19:33:46 437.365/2234.400
STRAND 1 31 Jan 19:25:23 19:30:31 65° 286° (WNW) 19:35:37 437.568
CANX-2 31 Jan 19:27:15 19:31:11 37° 71° (ENE) 19:35:10 2200.000
AAUSAT CUBESAT 2 31 Jan 19:29:49 19:33:05 23° 68° (ENE) 19:36:26 437.432
CUBEBUG 2 31 Jan 19:30:46 19:31:36 11° 60° (ENE) 19:32:44 437.445
CUTE 1.7 + AOD 2 31 Jan 19:50:40 19:54:54 61° 74° (ENE) 19:59:09 437.475
CUBESAT XI-V 31 Jan 19:53:03 19:56:45 23° 293° (WNW) 20:00:20 437.345
Oscar 11 31 Jan 20:02:24 20:06:00 26° 69° (ENE) 20:09:39 145.826/435.025
UWE-3 31 Jan 20:02:31 20:05:39 18° 65° (ENE) 20:08:55 435.000/436.395/437.385
SO-50 31 Jan 20:02:37 20:05:02 13° 251° (WSW) 20:07:13 436.795
CINEMA 3 31 Jan 20:09:19 20:13:57 41° 71° (ENE) 20:18:43 145.822/145.860
SEEDS 31 Jan 20:17:27 20:21:43 79° 258° (WSW) 20:25:59 437.485
VELOX 1 31 Jan 20:33:09 20:35:23 14° 63° (ENE) 20:37:48 145.980
UKube-1 31 Jan 20:38:51 20:42:50 38° 70° (ENE) 20:46:53 .
COMPASS 1 31 Jan 20:40:12 20:44:20 52° 261° (W) 20:48:28 437.405
HUMSAT D 31 Jan 20:41:33 20:44:38 20° 67° (ENE) 20:47:50 437.325/437.525
DOVE 4 31 Jan 20:42:18 20:47:21 60° 261° (W) 20:52:37 437.250
GOMX 1 31 Jan 20:43:14 20:48:10 44° 264° (W) 20:53:21 467.674
DELFI C3 31 Jan 20:43:55 20:47:55 57° 74° (ENE) 20:51:56 145.870
AIST 1 31 Jan 20:50:30 20:52:53 15° 67° (ENE) 20:55:26
HO-68 31 Jan 20:54:15 21:00:53 39° 263° (W) 21:07:28 435.675
ISS 31 Jan 20:57:08 21:00:22 61° 143° (SE) 21:03:37 145.825
ZACube-1 31 Jan 20:58:35 21:03:03 52° 73° (ENE) 21:07:34 437.345
DX 1 31 Jan 21:02:35 21:06:55 71° 75° (ENE) 21:11:18 434.975-435.025
CUBEBUG 2 31 Jan 21:02:50 21:07:36 82° 77° (ENE) 21:12:26 437.445
BRITE-PL 31 Jan 21:03:13 21:07:18 22° 271° (W) 21:11:27 437.365/2234.400
CANX-2 31 Jan 21:04:03 21:07:18 20° 268° (W) 21:10:26 2200.000
AAUSAT CUBESAT 2 31 Jan 21:04:49 21:08:37 32° 264° (W) 21:12:23 437.432
FUNcube-1 31 Jan 21:09:29 21:14:03 67° 75° (ENE) 21:18:38 145.935
YUBILEINY 31 Jan 21:22:13 21:28:57 23° 299° (WNW) 21:35:23 435.215
50 SAT 31 Jan 21:26:39 21:30:32 41° 72° (ENE) 21:34:28 437.505
CUTE 1.7 + AOD 2 31 Jan 21:29:26 21:31:19 12° 272° (W) 21:32:59 437.475
UWE-3 31 Jan 21:37:14 21:41:50 53° 261° (W) 21:46:28 435.000/436.395/437.385
Oscar 11 31 Jan 21:38:17 21:42:08 29° 265° (W) 21:45:55 145.826/435.025
AISAT 31 Jan 21:40:17 21:44:42 68° 74° (ENE) 21:49:12 437.250
CINEMA 3 31 Jan 21:47:14 21:51:20 25° 268° (W) 21:55:23 145.822/145.860
ANTELSAT 31 Jan 21:47:45 21:50:52 19° 91° (E) 21:54:05 437.575/2403.000
QB50P2 31 Jan 21:48:34 21:49:48 11° 87° (E) 21:51:18 145.880/145.840
ESTCUBE 1 31 Jan 21:52:22 21:56:32 39° 70° (ENE) 22:00:45 437.505/2401.250
TIGRISAT 31 Jan 21:53:38 21:57:01 22° 92° (E) 22:00:25 435.000
QB50P1 31 Jan 21:56:08 21:58:15 14° 89° (E) 22:00:35 145.935-145.965
CUBEBUG 1 31 Jan 22:07:01 22:11:13 51° 73° (ENE) 22:15:31 437.445
VELOX 1 31 Jan 22:07:06 22:11:30 65° 259° (W) 22:15:58 145.980
TISAT 1 31 Jan 22:10:48 22:13:03 14° 64° (ENE) 22:15:27 437.305
POLYITAN 1 31 Jan 22:11:59 22:15:13 21° 92° (E) 22:18:32 437.675
UKube-1 31 Jan 22:15:53 22:19:10 20° 267° (W) 22:22:22 .
HUMSAT D 31 Jan 22:16:03 22:20:11 41° 262° (W) 22:24:19 437.325/437.525
DELFI C3 31 Jan 22:21:58 22:23:36 12° 272° (W) 22:25:02 145.870
AIST 1 31 Jan 22:26:42 22:30:58 52° 266° (W) 22:35:13
POPSAT HIP 1 31 Jan 22:30:01 22:33:53 32° 96° (E) 22:37:45 437.405
DUCHIFAT 1 31 Jan 22:30:57 22:34:49 32° 96° (E) 22:38:41 145.980
ISS 31 Jan 22:34:11 22:37:03 27° 342° (NNW) 22:39:56 145.825
ZACube-1 31 Jan 22:36:46 22:39:47 17° 270° (W) 22:42:39 437.345
DX 1 31 Jan 22:42:32 22:43:47 11° 273° (W) 22:44:47 434.975-435.025
CUBEBUG 2 31 Jan 22:43:29 22:45:01 11° 274° (W) 22:46:16 437.445
UNISAT 6 31 Jan 22:47:16 22:51:44 84° 100° (E) 22:56:05 437.425
FUNcube-1 31 Jan 22:48:43 22:50:56 13° 273° (W) 22:52:55 145.935
